Regional Weather Roundup
Issued by NWS

Home | Current Version | Previous Version | Text Only | Print | Product List | Glossary On
Versions: 1 2 3 4 5 6 7 8 9 10 11 12 13 14 15 16 17 18 19 20 21 22 23 24 25 26 27 28 29 30 31 32 33 34 35 36 37 38 39 40 41 42 43 44 45 46 47 48 49 50
000
ASUS45 KTFX 181710
RWRMT
Montana Regional Weather Roundup
National Weather Service Great Falls MT
1100 AM MDT SUN AUG 18 2019

NOTE: "FAIR" indicates few or no clouds below 12,000 feet with no
significant weather and/or obstructions to visibility.

MTZ001>007-043-181800-
West of the divide

CITY           SKY/WX    TMP DP  RH WIND       PRES   REMARKS
Kalispell      FAIR      69  50  50 SE12G18   29.86S
Missoula       FAIR      65  48  54 VRB3      29.93S
Butte          FAIR      66  42  41 NE6       30.00S
Anaconda         N/A     68  39  34 S8        29.95S
Deer Lodge       N/A     64  45  48 W3        29.98S
Hamilton       SUNNY     66  48  52 CALM      29.93S
Mullan Pass    FAIR      58  42  55 VRB5      30.00R
Plains           N/A     68  50  52 CALM      29.90S
Ronan            N/A     70  45  40 CALM      29.89R
$$

MTZ008-052>055-181800-
Southwest Montana

CITY           SKY/WX    TMP DP  RH WIND       PRES   REMARKS
Bozeman        FAIR      68  45  43 NE5       29.96F
Dillon         FAIR      67  46  47 SW9       29.99S
Ennis          SUNNY     73  36  25 S9G16     30.03S
Three Forks      N/A     67  49  52 CALM      29.95S
Twin Bridges     N/A     66  43  43 CALM      29.98S
W Yellowstone  FAIR      64  37  36 SW12G23   30.09R
$$

MTZ009-010-012-014-046-048-049-054-181800-
East Slopes and Central Montana

CITY           SKY/WX    TMP DP  RH WIND       PRES   REMARKS
Cut Bank       FAIR      71  43  36 W23G30    29.80R
Great Falls    FAIR      71  42  35 W16G28    29.82S
Helena         FAIR      67  47  48 VRB5      29.91S
Malmstrom AFB  FAIR      71  44  37 SW18G26   29.83S
Augusta        FAIR      68  42  39 W18G26    29.86S
Bowmans Corner   N/A     68  42  37 SW13      29.86R
Choteau          N/A     73  43  33 W12       29.82R
Fairfield      FAIR      71  42  35 SW20      29.83S
Power          FAIR      69  41  35 SW18      29.82S
Raynesford     FAIR      69  42  37 SW21G29   29.86R
Ulm            FAIR      71  43  36 W17G24    29.85R
White Sulphur    N/A     68  37  32 SW8G20    29.93S
$$

MTZ011-013-016-021-045-047-050-051-181800-
North Central Montana

CITY           SKY/WX    TMP DP  RH WIND       PRES   REMARKS
Havre          FAIR      72  49  44 SW21G28   29.74S
Lewistown      FAIR      69  43  38 W14G21    29.87R
Chinook          N/A     73  46  38 W14G25    29.74F
Denton         FAIR      70  42  35 W15       29.81R
Fort Benton      N/A     73  43  33 N18       29.79F
Geyser         FAIR      69  41  36 W16       29.85S
Grass Range    FAIR      68  44  42 W13       29.82S
Judith Gap     FAIR      66  45  46 W3        29.90R
N Bar Ranch    FAIR      68  41  37 W14G21    29.91R
Roy              N/A     71  45  39 W17       29.82R
Stanford       FAIR      69  43  39 W12       29.87S
Winifred       FAIR      70  43  38 W13       29.82F
$$

MTZ017>020-022>027-061-062-181800-
Northeast Montana

CITY           SKY/WX    TMP DP  RH WIND       PRES   REMARKS
Glasgow        FAIR      69  51  52 S7        29.77F
Circle           N/A     68  50  52 SW13G21   29.81
Culbertson       N/A     68  48  49 SW12      29.79F
Glendive       FAIR      65  51  60 S13       29.86F
Jordan           N/A     73  50  44 SW14G22   29.80S
Malta          SUNNY     72  52  49 SW8       29.73F
Poplar           N/A     66  50  55 SW12      29.79F
Scobey           N/A     68  46  45 S5        29.79F
Sidney         FAIR      64  51  62 S15       29.84F
Wolf Point     FAIR      69  50  50 SW12      29.80F
$$

MTZ028>42-056>058-181800-
Southcentral and southeast Montana

CITY           SKY/WX    TMP DP  RH WIND       PRES   REMARKS
Baker          FAIR      66  50  56 S8        29.90S
Big Timber     SUNNY     70  46  43 W13       29.92S
Billings       FAIR      71  50  47 SW16      29.90R
Forsyth          N/A     70  54  56 CALM      29.84F
Laurel           N/A     72  48  43 S15G22    29.89F
Livingston     FAIR      71  45  39 NW10      29.93S
Miles City     FAIR      66  54  65 S9        29.85F
$$

Regional Reports...Dakotas/MN

CITY           SKY/WX    TMP DP  RH WIND       PRES   REMARKS
Williston      FAIR      66  48  52 SW14G20   29.83F
Minot          FAIR      68  46  45 SW20      29.83R
Dickinson      FAIR      64  46  52 S13G21    29.87F
Beach          FAIR      64  48  55 SW12      29.88F
Crosby         FAIR      68  41  37 SW17      29.80F
Hettinger      FAIR      62  46  55 SW10      29.92F
Tioga          FAIR      66  39  37 SW16      29.84F
Watford City   FAIR      66  48  52 SW10      29.85S
Bismarck       FAIR      66  47  50 W12       29.90F
Grand Forks    FAIR      72  44  36 W15G24    29.80S
Fargo          FAIR      69  48  47 NW10      29.86R
Buffalo SD       N/A     66  52  60 S14G20    29.90F
Rapid City     FAIR      68  56  65 S15       29.94F
Intl Falls     FAIR      64  49  57 W13       29.74R
Duluth         FAIR      69  54  58 NW16G28   29.72S
Minneapolis    PTSUNNY   72  60  66 NW14      29.80S
$$

Regional Reports...WY/ID/WA

CITY           SKY/WX    TMP DP  RH WIND       PRES   REMARKS
Buffalo WY     FAIR      69  49  48 SE7       29.95F
Cody           FAIR      70  46  42 VRB6      29.96S
Gillette       FAIR      67  52  58 S9        29.95S
Powell         FAIR      64  43  45 SE15G22   29.95
Sheridan       FAIR      74  49  41 CALM      29.90S
Yellowstone La   N/A     62  37  39 VRB3      30.17R
Boise          FAIR      78  41  26 E3        29.91R
Couer d`Alene  FAIR      69  51  52 SE13      29.87R
Idaho Falls    FAIR      71  41  33 S12       30.03R
Salmon         FAIR      64  45  49 CALM      29.98F
Spokane        FAIR      67  48  50 SW13      29.86S
Seattle        CLOUDY    64  54  69 VRB3      29.90S
$$

Regional Reports...Alberta

CITY           SKY/WX    TMP DP  RH WIND       PRES   REMARKS
Calgary        MOSUNNY   64  46  52 VRB2      29.74R
Cardston         N/A     70  46  43 NW7         N/A
Crowsnest Pass   N/A     66  45  45 W10G20      N/A
Edmonton       CLOUDY    52  45  76 E5        29.76R
Fort McMurray  CLOUDY    50  45  81 NW12      29.72R
High Level     PTSUNNY   46  41  81 N17G24    29.87R
Lethbridge     MOSUNNY   73  41  31 W16G22    29.73R
Lloydminster   CLOUDY    54  39  58 NW6G24    29.73R
Medicine Hat   MOSUNNY   72  45  37 W14G21    29.68R
Milk River       N/A     72  43  35 NW21G29     N/A
Onefour          N/A     73  41  31 W21G31      N/A
Peace River    MOSUNNY   50  41  71 NE12      29.80S
Pincher Creek  MOSUNNY   68  48  49 W10G20    29.79R
Raymond          N/A     73  39  29 W18         N/A
Waterton Gate    N/A     68  45  42 SW13G21     N/A
Fort Smith NWT CLOUDY    54  46  76 N7        29.75R
$$

Regional Reports...Saskatchewan

CITY           SKY/WX    TMP DP  RH WIND       PRES   REMARKS
Assiniboia       N/A     68  41  37 SW16        N/A
Coronach         N/A     68  46  45 S14         N/A
Cypress Hills    N/A     61  46  59 SW9         N/A
Estevan        SUNNY     68  45  42 W16G23    29.78F
Prince Albert  PTSUNNY   57  45  62 NW10G23   29.69R
Regina         MOSUNNY   64  48  55 W10G17    29.72F
Rockglen         N/A     64  43  45 SW15        N/A
Saskatoon      CLOUDY    55  41  58 CALM      29.71S
Swift Current  MOSUNNY   68  46  45 SW10G20   29.68S
Uranium City     N/A     50  48  93 NE7         N/A
Val Marie        N/A     68  46  45 S14         N/A
$$



USA.gov is the U.S. government's official web portal to all federal, state and local government web resources and services.